User: anonymous   Login
Location: Vihti�l�
(61.3833°N, 23.0667°E)
Time: 09:06:59
(UTC+00:00)
Language:

Genesis I - Orbit

View from above orbital plane
View from above orbital plane
View from above satellite
View from above satellite

Ground track
Ground track

The orbit data is extracted from the following two-line orbital elements,

1 29252U 06029A   21066.21931468  .00000576  00000-0  37560-4 0  9999
2 29252  64.5219 161.9402 0032180 335.6208  24.3391 15.18505758808073
Epoch (UTC): 07 March 2021 05:15:48
Eccentricity: 0.0032180
inclination: 64.5219°
perigee height: 488 km
apogee height: 532 km
right ascension of ascending node: 161.9402°
argument of perigee: 335.6208°
revolutions per day: 15.18505758
mean anomaly at epoch: 24.3391°
orbit number at epoch: 80807

The dashed part of the orbit path shows where the satellite is in the earth's shadow,  

DLR